sat.trackr.live / text

‹ back to catalog

STARLINK-30080

NORAD 56705 · 2023-067T

PAYLOAD ACTIVE UNKNOWN

§ Identity

Operator
Country
US
Launch date
2023-05-19
Launch site
AFETR
Launch vehicle
Mass (kg)
RCS (m²)

Purposes: comms

External: N2YO · Heavens-Above · Gunter

§ Orbital elements

Epoch: 2026-09-20T22:38:54.345120Z

Period
94.27 min
Inclination
43.0032°
Eccentricity
0.0001491
Mean motion
15.27576251 rev/d
Perigee alt
482.0 km
Apogee alt
484.1 km
Semi-major
6,861.2 km
B*
1.3302e-5
RAAN
240.3684°
Arg perigee
278.4438°
Mean anomaly
81.6245°
Rev number
18,565

§ Raw data

STARLINK-300801 56705U 23067T   26263.94368455  .00000104  00000+0  13302-4 0  99912 56705  43.0032 240.3684 0001491 278.4438  81.6245 15.27576251185657

JSON: /api/v1/satellites/56705 · /tle

For live sub-satellite position, see the globe view (requires WebGL).

§ Visibility from observer

Set your observer location to see the next 7 days of passes ≥ 10°. The values pass through the URL so the page stays shareable.

No JS? Fill the form by hand. The geolocation button needs JavaScript.